Tracking 30746 objects as of 19-Jun-2025
HD Live streaming from Space Station
objects crossing your sky now

STARLINK-30299

Track STARLINK-30299 now!
10-day predictions
STARLINK-30299 is classified as:


NORAD ID: 57650
Int'l Code: 2023-122U
Perigee: 565.4 km
Apogee: 566.9 km
Inclination: 43.0 °
Period: 95.8 minutes
Semi major axis: 6937 km
RCS: Unknown
Launch date: August 17, 2023
Source: United States (US)
Launch site: AIR FORCE EASTERN TEST RANGE (AFETR)
Your satellite tracking list
Your tracking list is empty




NASA's NSSDC Master Catalog

Two Line Element Set (TLE):
1 57650U 23122U   25170.16443240 -.00000917  00000-0 -52824-4 0  9996
2 57650  43.0030  86.3108 0001083 249.6396 110.4330 15.02544569102547
Source of the keplerian elements: AFSPC